Location: Eurasberg
(48.3353°N, 11.0839°E)
Time: 10:10:44
(UTC+00:00)

Cosmos 2084 Rocket - Pass Details

Date: 18 January 2026
Orbit: 542 x 571 km, 62.8° (Epoch: 11 February)

Event Time Altitude Azimuth Distance (km) Brightness Sun altitude
Exits shadow 05:50:28 15° 307° (NW) 1,580 5.1 -11.3°
Maximum altitude 05:53:49 53° 234° (SW) 706 3.6 -10.8°
Drops below altitude 10° 05:57:55 10° 158° (SSE) 1,869 6.7 -10.1°
Sets 06:00:11 0° 153° (SSE) 2,763 7.7 -9.8°
